TimeCST,TemperatureF,Dew PointF,Humidity,Sea Level PressureIn,VisibilityMPH,Wind Direction,Wind SpeedMPH,Gust SpeedMPH,PrecipitationIn,Events,Conditions,WindDirDegrees,DateUTC
12:08 AM,37.4,35.6,93,30.08,10.0,NNE,6.9,-,N/A,,Overcast,20,2013-12-06 06:08:00
12:45 AM,37.4,35.6,93,30.07,5.0,NNE,4.6,-,N/A,,Overcast,30,2013-12-06 06:45:00
12:58 AM,37.4,36.3,96,30.08,5.0,NNE,4.6,-,N/A,,Overcast,20,2013-12-06 06:58:00
1:54 AM,37.4,37.4,100,30.06,6.0,NNE,6.9,-,N/A,Rain,Light Rain,20,2013-12-06 07:54:00
1:58 AM,37.8,37.0,97,30.07,6.0,NNE,6.9,-,0.00,Rain,Light Rain,20,2013-12-06 07:58:00
2:52 AM,37.4,37.4,100,30.05,6.0,NNE,8.1,-,N/A,,Light Drizzle,30,2013-12-06 08:52:00
2:58 AM,37.8,37.0,97,30.05,6.0,NE,8.1,-,0.00,,Light Drizzle,40,2013-12-06 08:58:00
3:08 AM,37.4,37.4,100,30.06,5.0,NNE,4.6,-,N/A,Rain,Light Rain,30,2013-12-06 09:08:00
3:27 AM,37.4,37.4,100,30.06,5.0,NNE,6.9,-,N/A,Rain,Heavy Rain,30,2013-12-06 09:27:00
3:37 AM,37.4,37.4,100,30.05,10.0,NE,6.9,-,N/A,Rain,Light Rain,50,2013-12-06 09:37:00
3:44 AM,37.4,37.4,100,30.07,10.0,NNE,4.6,-,N/A,,Overcast,20,2013-12-06 09:44:00
3:58 AM,37.8,37.0,97,30.08,6.0,North,5.8,-,0.10,,Light Drizzle,10,2013-12-06 09:58:00
4:25 AM,37.4,37.4,100,30.08,6.0,NNE,6.9,-,N/A,,Light Drizzle,20,2013-12-06 10:25:00
4:58 AM,36.9,36.0,97,30.08,6.0,NNE,6.9,-,0.00,,Light Drizzle,30,2013-12-06 10:58:00
5:58 AM,36.7,35.8,97,30.09,6.0,North,5.8,-,0.00,,Light Drizzle,10,2013-12-06 11:58:00
6:26 AM,37.4,35.6,93,30.10,10.0,North,4.6,-,N/A,Rain,Light Rain,10,2013-12-06 12:26:00
6:47 AM,37.4,35.6,93,30.08,10.0,NE,8.1,-,N/A,Rain,Light Rain,40,2013-12-06 12:47:00
6:58 AM,36.7,36.0,97,30.10,6.0,NNE,9.2,-,0.00,,Light Drizzle,30,2013-12-06 12:58:00
7:58 AM,36.7,35.4,95,30.12,7.0,North,6.9,-,0.01,Rain,Light Rain,10,2013-12-06 13:58:00
8:58 AM,36.3,34.5,93,30.17,4.0,North,9.2,-,0.02,Rain,Light Rain,350,2013-12-06 14:58:00
9:58 AM,36.1,34.5,94,30.22,7.0,North,15.0,18.4,0.03,Rain,Light Rain,360,2013-12-06 15:58:00
10:58 AM,36.3,34.7,94,30.22,10.0,North,10.4,-,0.03,Rain,Light Rain,360,2013-12-06 16:58:00
11:16 AM,35.6,33.8,93,30.21,10.0,North,9.2,-,N/A,,Overcast,10,2013-12-06 17:16:00
11:59 AM,36.0,34.2,93,30.24,10.0,NNE,8.1,-,0.02,Rain,Light Rain,20,2013-12-06 17:59:00
12:17 PM,35.6,35.6,100,30.22,10.0,North,8.1,-,N/A,Rain,Light Rain,10,2013-12-06 18:17:00
12:58 PM,36.7,34.5,92,30.22,10.0,North,13.8,18.4,0.01,Rain,Light Rain,10,2013-12-06 18:58:00
1:10 PM,37.4,33.8,87,30.22,10.0,North,11.5,-,N/A,,Overcast,10,2013-12-06 19:10:00
1:58 PM,37.4,34.0,87,30.22,10.0,NNE,10.4,-,0.01,,Overcast,20,2013-12-06 19:58:00
2:58 PM,37.0,32.4,83,30.24,10.0,NNE,10.4,-,N/A,,Overcast,30,2013-12-06 20:58:00
3:58 PM,37.4,32.7,83,30.27,10.0,North,10.4,-,N/A,,Overcast,360,2013-12-06 21:58:00
4:58 PM,37.0,32.9,85,30.30,10.0,North,9.2,-,N/A,,Overcast,10,2013-12-06 22:58:00
5:22 PM,37.4,33.8,87,30.29,10.0,North,12.7,-,N/A,,Overcast,360,2013-12-06 23:22:00
5:31 PM,35.6,33.8,93,30.30,10.0,North,11.5,-,N/A,,Overcast,360,2013-12-06 23:31:00
5:41 PM,35.6,33.8,93,30.30,10.0,North,10.4,-,N/A,,Overcast,360,2013-12-06 23:41:00
5:58 PM,36.3,33.4,89,30.32,10.0,NNE,10.4,-,0.00,,Overcast,20,2013-12-06 23:58:00
6:18 PM,35.6,32.0,87,30.32,10.0,NNE,8.1,-,N/A,,Overcast,20,2013-12-07 00:18:00
6:58 PM,35.6,32.0,87,30.37,10.0,North,11.5,-,N/A,,Overcast,10,2013-12-07 00:58:00
7:08 PM,35.6,32.0,87,30.34,10.0,North,11.5,-,N/A,,Overcast,10,2013-12-07 01:08:00
7:58 PM,34.5,30.6,85,30.38,10.0,NNE,10.4,-,N/A,,Overcast,20,2013-12-07 01:58:00
8:58 PM,34.2,29.8,84,30.40,10.0,NNE,8.1,-,N/A,,Overcast,20,2013-12-07 02:58:00
9:58 PM,33.4,29.8,87,30.40,10.0,NNE,10.4,-,N/A,,Overcast,20,2013-12-07 03:58:00
10:06 PM,32.0,30.2,93,30.41,10.0,NNE,10.4,-,N/A,,Overcast,20,2013-12-07 04:06:00
10:36 PM,32.0,30.2,93,30.41,10.0,NNE,9.2,-,N/A,Snow,Light Snow,30,2013-12-07 04:36:00
10:56 PM,32.0,30.2,93,30.41,10.0,NNE,8.1,-,N/A,Snow,Light Snow,30,2013-12-07 04:56:00
10:58 PM,32.0,29.7,91,30.43,10.0,NNE,8.1,-,0.00,Snow,Light Snow,30,2013-12-07 04:58:00
11:18 PM,32.0,30.2,93,30.42,9.0,North,8.1,-,N/A,Snow,Light Snow,10,2013-12-07 05:18:00
11:28 PM,32.0,30.2,93,30.42,10.0,NNE,9.2,-,N/A,Snow,Light Snow,20,2013-12-07 05:28:00
11:47 PM,32.0,30.2,93,30.42,9.0,NNE,9.2,-,N/A,,Overcast,20,2013-12-07 05:47:00
11:58 PM,32.0,28.0,85,30.44,10.0,NNE,9.2,-,0.00,,Overcast,20,2013-12-07 05:58:00